| time (UTC) | temp F | wind direction | speed MPH | gust MPH | rain 1hr in | rain 24hr in | rain mn in | humidity % | barometer mb |
| 20260504001513 | 60 | 224 | 2.0 | 4.0 | 0.00 | 0.00 | 0.00 | 66 | 1017.1 |
| 20260504000022 | 60 | 248 | 1.0 | 5.0 | 0.00 | 0.00 | 0.00 | 67 | 1017.1 |
| 20260503234521 | 60 | 200 | 2.0 | 4.0 | 0.00 | 0.00 | 0.00 | 68 | 1017.1 |
| 20260503233019 | 61 | 214 | 1.0 | 3.0 | 0.00 | 0.00 | 0.00 | 67 | 1017.1 |
| 20260503231514 | 61 | 236 | 2.0 | 5.0 | 0.00 | 0.00 | 0.00 | 66 | 1017.2 |
| 20260503230028 | 61 | 201 | 1.0 | 4.0 | 0.00 | 0.00 | 0.00 | 67 | 1017.2 |
| 20260503224507 | 61 | 210 | 2.0 | 4.0 | 0.00 | 0.00 | 0.00 | 69 | 1017.2 |
| 20260503223005 | 61 | 175 | 1.0 | 2.0 | 0.00 | 0.00 | 0.00 | 71 | 1017.3 |
| 20260503221524 | 61 | 239 | 1.0 | 3.0 | 0.00 | 0.00 | 0.00 | 73 | 1017.2 |
| 20260503220020 | 60 | 187 | 0.0 | 3.0 | 0.00 | 0.00 | 0.00 | 75 | 1017.2 |
| 20260503214535 | 60 | 157 | 1.0 | 3.0 | 0.00 | 0.00 | 0.00 | 77 | 1017.2 |
| 20260503213014 | 59 | 234 | 0.0 | 2.0 | 0.00 | 0.00 | 0.00 | 78 | 1017.2 |
| 20260503211507 | 59 | 153 | 1.0 | 2.0 | 0.00 | 0.00 | 0.00 | 80 | 1017.1 |
| 20260503210007 | 59 | 203 | 0.0 | 1.0 | 0.00 | 0.00 | 0.00 | 80 | 1017.1 |
| 20260503204527 | 60 | 174 | 0.0 | 0.0 | 0.00 | 0.00 | 0.00 | 80 | 1017.1 |
| 20260503203033 | 61 | 174 | 0.0 | 0.0 | 0.00 | 0.00 | 0.00 | 79 | 1017.1 |
| 20260503201520 | 61 | 131 | 0.0 | 1.0 | 0.00 | 0.00 | 0.00 | 79 | 1017.0 |
| 20260503200018 | 61 | 215 | 0.0 | 1.0 | 0.00 | 0.00 | 0.00 | 78 | 1017.0 |
| 20260503194511 | 62 | 144 | 1.0 | 2.0 | 0.00 | 0.00 | 0.00 | 77 | 1016.9 |
| 20260503193013 | 62 | 151 | 1.0 | 3.0 | 0.00 | 0.00 | 0.00 | 78 | 1016.8 |
| 20260503191558 | 62 | 102 | 0.0 | 0.0 | 0.00 | 0.00 | 0.00 | 78 | 1016.8 |
| 20260503190031 | 62 | 104 | 0.0 | 3.0 | 0.00 | 0.00 | 0.00 | 78 | 1016.8 |
| 20260503184520 | 63 | 119 | 1.0 | 4.0 | 0.00 | 0.00 | 0.00 | 77 | 1016.6 |
| 20260503183017 | 63 | 93 | 1.0 | 4.0 | 0.00 | 0.00 | 0.00 | 75 | 1016.5 |
| 20260503181514 | 65 | 127 | 1.0 | 5.0 | 0.00 | 0.00 | 0.00 | 73 | 1016.5 |
| 20260503180012 | 65 | 114 | 2.0 | 5.0 | 0.00 | 0.00 | 0.00 | 72 | 1016.5 |
| 20260503174527 | 65 | 105 | 3.0 | 7.0 | 0.00 | 0.00 | 0.00 | 72 | 1016.4 |
| 20260503173024 | 66 | 103 | 5.0 | 8.0 | 0.00 | 0.00 | 0.00 | 70 | 1016.3 |
| 20260503171504 | 67 | 108 | 5.0 | 8.0 | 0.00 | 0.00 | 0.00 | 72 | 1016.4 |
| 20260503081532 | 69 | 5 | 0.0 | 2.0 | 0.00 | 0.00 | 0.00 | 53 | 1019.7 |
| 20260503071533 | 61 | 304 | 1.0 | 4.0 | 0.00 | 0.00 | 0.00 | 68 | 1019.8 |
| 20260503054512 | 52 | 255 | 0.0 | 1.0 | 0.00 | 0.00 | 0.00 | 76 | 1019.6 |
| 20260503053008 | 51 | 263 | 1.0 | 2.0 | 0.00 | 0.00 | 0.00 | 80 | 1019.6 |
| 20260503051504 | 49 | 273 | 1.0 | 2.0 | 0.00 | 0.00 | 0.00 | 81 | 1019.7 |
| 20260503050035 | 47 | 238 | 0.0 | 3.0 | 0.00 | 0.00 | 0.00 | 82 | 1019.6 |
| 20260503044526 | 46 | 227 | 2.0 | 3.0 | 0.00 | 0.00 | 0.00 | 82 | 1019.7 |
| 20260503043017 | 46 | 245 | 2.0 | 3.0 | 0.00 | 0.00 | 0.00 | 84 | 1019.6 |
| 20260503041528 | 45 | 226 | 2.0 | 3.0 | 0.00 | 0.00 | 0.00 | 84 | 1019.7 |
| 20260503040033 | 46 | 238 | 1.0 | 2.0 | 0.00 | 0.00 | 0.00 | 84 | 1019.6 |
| 20260503034504 | 0 | 0.0 | 0.0 | 0.00 | 0.00 | 0.00 | 1019.5 | ||
| 20260503033005 | 46 | 114 | 0.0 | 0.0 | 0.00 | 0.00 | 0.00 | 83 | 1019.4 |
| 20260503031524 | 47 | 105 | 0.0 | 0.0 | 0.00 | 0.00 | 0.00 | 83 | 1019.5 |
| 20260503030035 | 47 | 111 | 0.0 | 0.0 | 0.00 | 0.00 | 0.00 | 82 | 1019.6 |
| 20260503024518 | 48 | 118 | 0.0 | 0.0 | 0.00 | 0.00 | 0.00 | 81 | 1019.6 |
| 20260503023035 | 48 | 0.0 | 0.0 | 0.00 | 0.00 | 0.00 | 1019.7 | ||
| 20260503021532 | 48 | 0.0 | 1.0 | 0.00 | 0.00 | 0.00 | 81 | 1019.8 | |
| 20260503020033 | 48 | 0.0 | 1.0 | 0.00 | 0.00 | 0.00 | 80 | 1019.9 | |
| 20260503014531 | 0 | 0.0 | 0.0 | 0.00 | 0.00 | 0.00 | 1019.8 | ||
| 20260503013040 | 0 | 0.0 | 0.0 | 0.00 | 0.00 | 0.00 | 1019.9 | ||
| 20260503011536 | 0 | 0.0 | 0.0 | 0.00 | 0.00 | 0.00 | 1020.0 | ||
| 20260503010033 | 0 | 0.0 | 0.0 | 0.00 | 0.00 | 0.00 | 1020.0 | ||
| 20260503004536 | 0 | 0.0 | 0.0 | 0.00 | 0.00 | 0.00 | 1020.0 | ||
| 20260503003043 | 0 | 0.0 | 0.0 | 0.00 | 0.00 | 0.00 | 1020.1 |